Regional Weather Roundup
Issued by NWS State College, PA

Home | Current Version | Previous Version | Graphics & Text | Print | Product List | Glossary Off
Versions: 1 2 3 4 5 6 7 8 9 10 11 12 13 14 15 16 17 18 19 20 21 22 23 24 25 26 27 28 29 30 31 32 33 34 35 36 37 38 39 40 41 42 43 44 45 46 47 48 49 50

000
ASUS41 KCTP 282303
RWRCTP

REGIONAL WEATHER ROUNDUP
NATIONAL WEATHER SERVICE STATE COLLEGE PA
700 PM EDT TUE JUL 28 2015

Note: "fair" indicates few or no clouds below 12,000 feet with no
significant weather and/or obstructions to visibility.

* = STATION THAT DOES NOT REPORT PRECIPITATION /E.G. RAIN...SNOW...ETC/
    THUNDER OR FOG.

PAZ002>004-007>009-013>016-020>023-029>032-290000-
WESTERN PENNSYLVANIA

CITY           SKY/WX    TMP DP  RH WIND       PRES   REMARKS
ERIE           SUNNY     85  60  42 NE8       29.99F
MEADVILLE      PTSUNNY   84  63  49 N7        30.02S
FRANKLIN*      SUNNY     81  61  50 CALM      30.04R
NEW CASTLE     FAIR      88  63  43 CALM      29.99F
BEAVER COUNTY  NOT AVBL
BUTLER*        SUNNY     86  59  39 E6        30.01F
PITTSBURGH INT MOSUNNY   88  62  41 NE7       29.98F
PITTSBURGH     MOSUNNY   86  59  39 NE7       29.97F
INDIANA*       SUNNY     86  63  45 E6        30.04S
LATROBE        SUNNY     86  66  51 NE6       29.99F
WASHINGTON CO* NOT AVBL
$$

PAZ004>006-010>012-017>019-024>028-033>037-041-042-045-046-049>053-290000-
CENTRAL PENNSYLVANIA

CITY           SKY/WX    TMP DP  RH WIND       PRES   REMARKS
BRADFORD       SUNNY     83  56  39 NE5       30.06F
DUBOIS         SUNNY     87  59  38 E3        30.04S
CLEARFIELD     SUNNY     83  59  44 E6        30.04R
JOHNSTOWN      SUNNY     80  63  55 E5        30.06R
ALTOONA        SUNNY     84  65  52 CALM      30.03S
STATE COLLEGE  SUNNY     82  66  57 CALM      30.02R
WILLIAMSPORT   SUNNY     87  60  40 SW3       29.97R
SELINSGROVE    SUNNY     80  73  79 CALM      29.98R
FT INDIANTOWN  SUNNY     85  73  67 N3        29.97S
CAPITAL CITY   MOSUNNY   87  66  49 S3        29.95S
HARRISBURG     MOSUNNY   85  73  67 CALM      29.94F
YORK           SUNNY     85  72  65 SW3       29.96F
$$

PAZ038>040-043-044-047-048-054-055-060>062-067>071-290000-
EASTERN PENNSYLVANIA

CITY           SKY/WX    TMP DP  RH WIND       PRES   REMARKS
SCRANTON       SUNNY     88  63  43 NW8       29.99R
MOUNT POCONO   MOSUNNY   82  60  47 SE5       30.05S
ALLENTOWN      SUNNY     89  64  43 N5        29.96S
QUAKERTOWN*    CLEAR     88  63  42 CALM      29.98R
READING        SUNNY     88  61  40 W6        29.95F
LANCASTER      SUNNY     85  71  63 SE5       29.95F
COATESVILLE    CLEAR     84  72  65 W3        29.98F
POTTSTOWN      SUNNY     86  69  56 CALM      29.97S
BLUE BELL      SUNNY     88  68  51 CALM      29.94F
DOYLESTOWN     SUNNY     85  62  46 CALM      29.95F
WILLOW GROVE   NOT AVBL
NORTH PHILA    MOSUNNY   89  65  44 MISG      29.95F
PHILADELPHIA   MOSUNNY   91  68  46 SW9       29.93F HX  95
$$


USA.gov is the U.S. government's official web portal to all federal, state and local government web resources and services.